| time (UTC) | temp F | wind direction | speed knots | gust knots | rain 1hr in | rain 24hr in | rain mn in | humidity % | barometer mb |
| 20260506190527 | 88 | 216 | 3.5 | 5.2 | 0.00 | 0.00 | 0.00 | 44 | 1020.6 |
| 20260506190024 | 88 | 206 | 3.5 | 7.8 | 0.00 | 0.00 | 0.00 | 44 | 1020.6 |
| 20260506185522 | 87 | 307 | 3.5 | 6.1 | 0.00 | 0.00 | 0.00 | 44 | 1020.6 |
| 20260506185018 | 88 | 179 | 2.6 | 9.6 | 0.00 | 0.00 | 0.00 | 44 | 1020.8 |
| 20260506184515 | 88 | 243 | 2.6 | 6.1 | 0.00 | 0.00 | 0.00 | 44 | 1020.4 |
| 20260506184012 | 87 | 177 | 7.8 | 12.2 | 0.00 | 0.00 | 0.00 | 45 | 1020.9 |
| 20260506183508 | 87 | 212 | 2.6 | 7.0 | 0.00 | 0.00 | 0.00 | 44 | 1020.7 |
| 20260506183006 | 87 | 223 | 1.7 | 5.2 | 0.00 | 0.00 | 0.00 | 45 | 1020.8 |
| 20260506182502 | 87 | 222 | 3.5 | 7.8 | 0.00 | 0.00 | 0.00 | 45 | 1021.1 |
| 20260506181959 | 87 | 217 | 2.6 | 7.0 | 0.00 | 0.00 | 0.00 | 44 | 1021.1 |
| 20260506181457 | 87 | 230 | 6.1 | 7.8 | 0.00 | 0.00 | 0.00 | 43 | 1021.4 |
| 20260506180954 | 87 | 227 | 5.2 | 8.7 | 0.00 | 0.00 | 0.00 | 44 | 1021.1 |
| 20260506180450 | 87 | 244 | 4.3 | 11.3 | 0.00 | 0.00 | 0.00 | 46 | 1021.4 |
| 20260506175946 | 86 | 185 | 7.8 | 9.6 | 0.00 | 0.00 | 0.00 | 45 | 1021.5 |
| 20260506175443 | 86 | 222 | 7.0 | 7.8 | 0.00 | 0.00 | 0.00 | 44 | 1021.4 |
| 20260506174939 | 87 | 242 | 4.3 | 6.1 | 0.00 | 0.00 | 0.00 | 45 | 1021.7 |
| 20260506174438 | 86 | 243 | 5.2 | 6.1 | 0.00 | 0.00 | 0.00 | 45 | 1021.8 |
| 20260506173934 | 85 | 353 | 2.6 | 6.1 | 0.00 | 0.00 | 0.00 | 48 | 1021.6 |
| 20260506173432 | 86 | 242 | 3.5 | 6.1 | 0.00 | 0.00 | 0.00 | 46 | 1021.9 |
| 20260506172929 | 86 | 283 | 3.5 | 6.1 | 0.00 | 0.00 | 0.00 | 47 | 1021.9 |
| 20260506172426 | 85 | 185 | 4.3 | 6.1 | 0.00 | 0.00 | 0.00 | 48 | 1022.0 |
| 20260506171922 | 85 | 173 | 6.1 | 11.3 | 0.00 | 0.00 | 0.00 | 47 | 1022.0 |
| 20260506171420 | 85 | 276 | 4.3 | 9.6 | 0.00 | 0.00 | 0.00 | 47 | 1022.0 |
| 20260506170917 | 84 | 280 | 2.6 | 7.8 | 0.00 | 0.00 | 0.00 | 48 | 1022.3 |
| 20260506170413 | 84 | 290 | 3.5 | 7.0 | 0.00 | 0.00 | 0.00 | 48 | 1022.1 |
| 20260506165912 | 84 | 139 | 3.5 | 7.8 | 0.00 | 0.00 | 0.00 | 48 | 1022.4 |
| 20260506165410 | 83 | 227 | 1.7 | 7.0 | 0.00 | 0.00 | 0.00 | 51 | 1022.3 |
| 20260506164906 | 83 | 294 | 4.3 | 6.1 | 0.00 | 0.00 | 0.00 | 49 | 1022.4 |
| 20260506164403 | 83 | 225 | 4.3 | 7.0 | 0.00 | 0.00 | 0.00 | 50 | 1022.5 |
| 20260506163901 | 83 | 199 | 2.6 | 7.0 | 0.00 | 0.00 | 0.00 | 51 | 1022.6 |
| 20260506163355 | 82 | 244 | 5.2 | 9.6 | 0.00 | 0.00 | 0.00 | 51 | 1022.6 |
| 20260506162850 | 83 | 201 | 5.2 | 8.7 | 0.00 | 0.00 | 0.00 | 51 | 1022.7 |
| 20260506162349 | 82 | 230 | 6.1 | 7.8 | 0.00 | 0.00 | 0.00 | 51 | 1023.1 |
| 20260506161846 | 80 | 271 | 1.7 | 5.2 | 0.00 | 0.00 | 0.00 | 54 | 1022.9 |
| 20260506161343 | 81 | 204 | 4.3 | 9.6 | 0.00 | 0.00 | 0.00 | 53 | 1023.0 |
| 20260506160841 | 81 | 159 | 2.6 | 7.0 | 0.00 | 0.00 | 0.00 | 55 | 1023.0 |
| 20260506160337 | 81 | 313 | 4.3 | 9.6 | 0.00 | 0.00 | 0.00 | 55 | 1022.9 |
| 20260506155836 | 80 | 222 | 6.1 | 8.7 | 0.00 | 0.00 | 0.00 | 57 | 1023.2 |
| 20260506155332 | 79 | 255 | 5.2 | 7.0 | 0.00 | 0.00 | 0.00 | 58 | 1022.7 |
| 20260506153444 | 78 | 164 | 2.6 | 6.1 | 0.00 | 0.00 | 0.00 | 58 | 1022.9 |
| 20260506152942 | 78 | 195 | 3.5 | 8.7 | 0.00 | 0.00 | 0.00 | 59 | 1023.1 |
| 20260506152438 | 79 | 204 | 7.8 | 8.7 | 0.00 | 0.00 | 0.00 | 58 | 1022.9 |
| 20260506151937 | 79 | 211 | 4.3 | 6.1 | 0.00 | 0.00 | 0.00 | 58 | 1023.0 |
| 20260506151434 | 78 | 232 | 3.5 | 11.3 | 0.00 | 0.00 | 0.00 | 59 | 1022.6 |
| 20260506150932 | 79 | 195 | 5.2 | 7.8 | 0.00 | 0.00 | 0.00 | 58 | 1022.9 |
| 20260506150427 | 79 | 197 | 3.5 | 7.0 | 0.00 | 0.00 | 0.00 | 58 | 1022.7 |
| 20260506145925 | 78 | 214 | 5.2 | 7.8 | 0.00 | 0.00 | 0.00 | 60 | 1022.8 |
| 20260506145421 | 78 | 204 | 2.6 | 6.1 | 0.00 | 0.00 | 0.00 | 61 | 1022.8 |
| 20260506144918 | 76 | 199 | 7.0 | 7.8 | 0.00 | 0.00 | 0.00 | 63 | 1022.7 |
| 20260506144414 | 76 | 197 | 2.6 | 7.8 | 0.00 | 0.00 | 0.00 | 64 | 1022.6 |
| 20260506143914 | 76 | 217 | 5.2 | 6.1 | 0.00 | 0.00 | 0.00 | 64 | 1023.0 |
| 20260506143410 | 77 | 181 | 3.5 | 6.1 | 0.00 | 0.00 | 0.00 | 63 | 1023.0 |
| 20260506142908 | 76 | 215 | 2.6 | 4.3 | 0.00 | 0.00 | 0.00 | 63 | 1023.1 |
| 20260506142406 | 76 | 197 | 4.3 | 6.1 | 0.00 | 0.00 | 0.00 | 64 | 1023.1 |
| 20260506141904 | 77 | 191 | 2.6 | 5.2 | 0.00 | 0.00 | 0.00 | 64 | 1023.0 |
| 20260506141401 | 76 | 198 | 2.6 | 6.1 | 0.00 | 0.00 | 0.00 | 65 | 1022.8 |
| 20260506140859 | 75 | 231 | 2.6 | 5.2 | 0.00 | 0.00 | 0.00 | 66 | 1022.8 |
| 20260506140356 | 75 | 223 | 1.7 | 5.2 | 0.00 | 0.00 | 0.00 | 66 | 1022.6 |
| 20260506135853 | 75 | 265 | 5.2 | 7.0 | 0.00 | 0.00 | 0.00 | 66 | 1022.5 |
| 20260506135350 | 75 | 218 | 2.6 | 7.0 | 0.00 | 0.00 | 0.00 | 66 | 1022.7 |
| 20260506134846 | 75 | 224 | 3.5 | 5.2 | 0.00 | 0.00 | 0.00 | 67 | 1022.8 |
| 20260506134342 | 75 | 222 | 2.6 | 7.0 | 0.00 | 0.00 | 0.00 | 66 | 1022.5 |
| 20260506133840 | 75 | 224 | 2.6 | 4.3 | 0.00 | 0.00 | 0.00 | 67 | 1022.5 |
| 20260506133336 | 74 | 202 | 1.7 | 4.3 | 0.00 | 0.00 | 0.00 | 69 | 1022.3 |
| 20260506132833 | 73 | 172 | 3.5 | 6.1 | 0.00 | 0.00 | 0.00 | 69 | 1022.7 |
| 20260506132330 | 73 | 225 | 7.8 | 9.6 | 0.00 | 0.00 | 0.00 | 69 | 1022.6 |
| 20260506131828 | 72 | 226 | 2.6 | 5.2 | 0.00 | 0.00 | 0.00 | 72 | 1022.4 |
| 20260506131324 | 71 | 232 | 3.5 | 7.0 | 0.00 | 0.00 | 0.00 | 72 | 1022.4 |
| 20260506130822 | 71 | 171 | 0.9 | 6.1 | 0.00 | 0.00 | 0.00 | 74 | 1022.4 |
| 20260506130318 | 70 | 216 | 4.3 | 6.1 | 0.00 | 0.00 | 0.00 | 75 | 1022.4 |
| 20260506125816 | 70 | 212 | 1.7 | 2.6 | 0.00 | 0.00 | 0.00 | 76 | 1022.2 |
| 20260506125314 | 69 | 165 | 0.9 | 2.6 | 0.00 | 0.00 | 0.00 | 77 | 1022.1 |
| 20260506124812 | 68 | 202 | 3.5 | 6.1 | 0.00 | 0.00 | 0.00 | 78 | 1022.4 |
| 20260506124309 | 68 | 217 | 1.7 | 6.1 | 0.00 | 0.00 | 0.00 | 79 | 1022.1 |
| 20260506123806 | 67 | 184 | 2.6 | 4.3 | 0.00 | 0.00 | 0.00 | 80 | 1022.1 |
| 20260506123305 | 67 | 220 | 2.6 | 4.3 | 0.00 | 0.00 | 0.00 | 80 | 1022.1 |
| 20260506122801 | 67 | 157 | 2.6 | 4.3 | 0.00 | 0.00 | 0.00 | 81 | 1021.9 |
| 20260506122258 | 66 | 187 | 3.5 | 6.1 | 0.00 | 0.00 | 0.00 | 81 | 1021.8 |
| 20260506121756 | 66 | 222 | 1.7 | 1.7 | 0.00 | 0.00 | 0.00 | 82 | 1022.2 |
| 20260506121253 | 65 | 176 | 1.7 | 4.3 | 0.00 | 0.00 | 0.00 | 83 | 1022.0 |
| 20260506120750 | 65 | 187 | 1.7 | 4.3 | 0.00 | 0.00 | 0.00 | 83 | 1022.1 |
| 20260506120248 | 65 | 228 | 2.6 | 2.6 | 0.00 | 0.00 | 0.00 | 83 | 1022.0 |
| 20260506115745 | 64 | 170 | 0.9 | 4.3 | 0.00 | 0.00 | 0.00 | 85 | 1021.9 |
| 20260506115244 | 64 | 175 | 0.9 | 1.7 | 0.00 | 0.00 | 0.00 | 85 | 1021.7 |
| 20260506114741 | 63 | 224 | 2.6 | 5.2 | 0.00 | 0.00 | 0.00 | 86 | 1021.9 |
| 20260506114239 | 62 | 185 | 1.7 | 5.2 | 0.00 | 0.00 | 0.00 | 88 | 1021.5 |
| 20260506113737 | 62 | 221 | 2.6 | 2.6 | 0.00 | 0.00 | 0.00 | 89 | 1021.4 |
| 20260506113234 | 62 | 194 | 1.7 | 4.3 | 0.00 | 0.00 | 0.00 | 90 | 1021.5 |
| 20260506112730 | 61 | 184 | 2.6 | 2.6 | 0.00 | 0.00 | 0.00 | 91 | 1021.4 |
| 20260506112228 | 60 | 178 | 1.7 | 1.7 | 0.00 | 0.00 | 0.00 | 92 | 1021.4 |
| 20260506111725 | 60 | 173 | 1.7 | 4.3 | 0.00 | 0.00 | 0.00 | 93 | 1021.4 |
| 20260506111223 | 60 | 167 | 0.9 | 1.7 | 0.00 | 0.00 | 0.00 | 93 | 1021.5 |
| 20260506110720 | 59 | 162 | 0.9 | 0.9 | 0.00 | 0.00 | 0.00 | 93 | 1021.4 |
| 20260506110218 | 59 | 161 | 0.0 | 0.0 | 0.00 | 0.00 | 0.00 | 93 | 1021.4 |
| 20260506105714 | 59 | 161 | 0.0 | 0.0 | 0.00 | 0.00 | 0.00 | 93 | 1021.4 |
| 20260506105211 | 59 | 164 | 0.9 | 0.9 | 0.00 | 0.00 | 0.00 | 93 | 1021.4 |
| 20260506104709 | 59 | 163 | 0.0 | 0.9 | 0.00 | 0.00 | 0.00 | 93 | 1021.4 |
| 20260506104206 | 59 | 165 | 0.9 | 0.9 | 0.00 | 0.00 | 0.00 | 93 | 1021.1 |
| 20260506103703 | 58 | 155 | 0.0 | 0.9 | 0.00 | 0.00 | 0.00 | 93 | 1021.0 |
| 20260506103200 | 58 | 155 | 0.0 | 0.0 | 0.00 | 0.00 | 0.00 | 92 | 1021.0 |
| 20260506102658 | 59 | 155 | 0.0 | 0.9 | 0.00 | 0.00 | 0.00 | 92 | 1021.0 |
| 20260506102156 | 59 | 177 | 0.0 | 0.9 | 0.00 | 0.00 | 0.00 | 92 | 1021.0 |
| 20260506101652 | 59 | 177 | 0.0 | 0.9 | 0.00 | 0.00 | 0.00 | 92 | 1021.3 |
| 20260506101149 | 59 | 177 | 0.9 | 0.9 | 0.00 | 0.00 | 0.00 | 92 | 1021.2 |
| 20260506100648 | 59 | 177 | 0.0 | 0.9 | 0.00 | 0.00 | 0.00 | 92 | 1021.1 |
| 20260506100145 | 59 | 178 | 0.9 | 0.9 | 0.00 | 0.00 | 0.00 | 92 | 1021.1 |
| 20260506095644 | 59 | 175 | 0.9 | 0.9 | 0.00 | 0.00 | 0.00 | 92 | 1021.3 |
| 20260506095140 | 59 | 175 | 0.0 | 0.9 | 0.00 | 0.00 | 0.00 | 91 | 1021.3 |
| 20260506094637 | 60 | 175 | 0.9 | 0.9 | 0.00 | 0.00 | 0.00 | 91 | 1021.3 |
| 20260506094135 | 60 | 176 | 0.9 | 1.7 | 0.00 | 0.00 | 0.00 | 91 | 1021.4 |
| 20260506093633 | 60 | 175 | 0.9 | 0.9 | 0.00 | 0.00 | 0.00 | 91 | 1021.4 |
| 20260506093130 | 60 | 173 | 0.0 | 0.9 | 0.00 | 0.00 | 0.00 | 91 | 1021.3 |
| 20260506092628 | 60 | 173 | 0.0 | 0.0 | 0.00 | 0.00 | 0.00 | 91 | 1021.3 |
| 20260506092125 | 60 | 173 | 0.0 | 0.9 | 0.00 | 0.00 | 0.00 | 90 | 1021.2 |
| 20260506091623 | 60 | 174 | 0.9 | 0.9 | 0.00 | 0.00 | 0.00 | 90 | 1021.2 |
| 20260506091120 | 60 | 173 | 0.0 | 0.9 | 0.00 | 0.00 | 0.00 | 90 | 1021.2 |
| 20260506090618 | 60 | 175 | 0.9 | 1.7 | 0.00 | 0.00 | 0.00 | 90 | 1021.1 |
| 20260506090114 | 60 | 172 | 0.9 | 1.7 | 0.00 | 0.00 | 0.00 | 89 | 1021.4 |
| 20260506085611 | 60 | 156 | 0.9 | 0.9 | 0.00 | 0.00 | 0.00 | 89 | 1021.5 |
| 20260506085107 | 61 | 167 | 1.7 | 1.7 | 0.00 | 0.00 | 0.00 | 88 | 1021.4 |
| 20260506084604 | 61 | 168 | 1.7 | 2.6 | 0.00 | 0.00 | 0.00 | 88 | 1021.4 |
| 20260506084101 | 61 | 165 | 0.9 | 0.9 | 0.00 | 0.00 | 0.00 | 88 | 1021.5 |
| 20260506083558 | 61 | 176 | 0.9 | 1.7 | 0.00 | 0.00 | 0.00 | 88 | 1021.4 |
| 20260506083055 | 61 | 178 | 1.7 | 2.6 | 0.00 | 0.00 | 0.00 | 88 | 1021.2 |
| 20260506082552 | 61 | 161 | 1.7 | 1.7 | 0.00 | 0.00 | 0.00 | 88 | 1021.2 |
| 20260506082047 | 61 | 183 | 1.7 | 2.6 | 0.00 | 0.00 | 0.00 | 87 | 1021.3 |
| 20260506081546 | 61 | 178 | 2.6 | 4.3 | 0.00 | 0.00 | 0.00 | 87 | 1021.1 |
| 20260506081043 | 61 | 173 | 2.6 | 2.6 | 0.00 | 0.00 | 0.00 | 87 | 1021.2 |
| 20260506080541 | 62 | 170 | 1.7 | 4.3 | 0.00 | 0.00 | 0.00 | 87 | 1021.3 |
| 20260506073524 | 62 | 178 | 2.6 | 4.3 | 0.00 | 0.00 | 0.00 | 86 | 1021.1 |
| 20260506073021 | 62 | 201 | 3.5 | 4.3 | 0.00 | 0.00 | 0.00 | 86 | 1021.0 |
| 20260506072518 | 62 | 176 | 2.6 | 4.3 | 0.00 | 0.00 | 0.00 | 86 | 1021.0 |
| 20260506072016 | 62 | 178 | 3.5 | 5.2 | 0.00 | 0.00 | 0.00 | 86 | 1021.0 |
| 20260506071514 | 62 | 173 | 1.7 | 4.3 | 0.00 | 0.00 | 0.00 | 86 | 1021.2 |
| 20260506071010 | 62 | 170 | 2.6 | 2.6 | 0.00 | 0.00 | 0.00 | 85 | 1021.0 |
| 20260506070508 | 62 | 188 | 3.5 | 4.3 | 0.00 | 0.00 | 0.00 | 85 | 1020.9 |
| 20260506062445 | 63 | 182 | 5.2 | 6.1 | 0.00 | 0.00 | 0.00 | 84 | 1021.5 |
| 20260506061941 | 63 | 203 | 3.5 | 5.2 | 0.00 | 0.00 | 0.00 | 83 | 1021.2 |
| 20260506061437 | 63 | 193 | 3.5 | 6.1 | 0.00 | 0.00 | 0.00 | 83 | 1021.4 |
| 20260506060936 | 63 | 187 | 6.1 | 7.0 | 0.00 | 0.00 | 0.00 | 84 | 1021.5 |
| 20260506060434 | 63 | 177 | 3.5 | 5.2 | 0.00 | 0.00 | 0.00 | 84 | 1021.6 |
| 20260506051405 | 64 | 169 | 3.5 | 4.3 | 0.00 | 0.00 | 0.00 | 82 | 1021.9 |
| 20260506050902 | 64 | 197 | 4.3 | 4.3 | 0.00 | 0.00 | 0.00 | 82 | 1022.2 |
| 20260506050400 | 64 | 182 | 2.6 | 4.3 | 0.00 | 0.00 | 0.00 | 82 | 1022.2 |
| 20260506044850 | 64 | 169 | 3.5 | 5.2 | 0.00 | 0.00 | 0.00 | 81 | 1022.2 |
| 20260506044348 | 64 | 169 | 3.5 | 5.2 | 0.00 | 0.00 | 0.00 | 81 | 1022.3 |
| 20260506043845 | 64 | 152 | 3.5 | 5.2 | 0.00 | 0.00 | 0.00 | 80 | 1022.3 |
| 20260506043342 | 64 | 174 | 2.6 | 5.2 | 0.00 | 0.00 | 0.00 | 80 | 1022.5 |
| 20260506042840 | 64 | 165 | 4.3 | 4.3 | 0.00 | 0.00 | 0.00 | 80 | 1022.4 |
| 20260506042339 | 65 | 179 | 4.3 | 5.2 | 0.00 | 0.00 | 0.00 | 80 | 1022.6 |
| 20260506041838 | 65 | 194 | 4.3 | 6.1 | 0.00 | 0.00 | 0.00 | 79 | 1022.6 |
| 20260506041334 | 65 | 184 | 4.3 | 5.2 | 0.00 | 0.00 | 0.00 | 79 | 1022.1 |
| 20260506040831 | 65 | 202 | 4.3 | 6.1 | 0.00 | 0.00 | 0.00 | 78 | 1022.3 |
| 20260506040329 | 65 | 200 | 4.3 | 5.2 | 0.00 | 0.00 | 0.00 | 78 | 1022.4 |
| 20260506035825 | 65 | 179 | 4.3 | 5.2 | 0.00 | 0.00 | 0.00 | 78 | 1022.2 |
| 20260506035323 | 65 | 177 | 4.3 | 6.1 | 0.00 | 0.00 | 0.00 | 78 | 1022.3 |
| 20260506034820 | 66 | 171 | 4.3 | 6.1 | 0.00 | 0.00 | 0.00 | 77 | 1022.1 |
| 20260506034317 | 66 | 189 | 5.2 | 7.0 | 0.00 | 0.00 | 0.00 | 77 | 1022.1 |
| 20260506033814 | 66 | 168 | 4.3 | 6.1 | 0.00 | 0.00 | 0.00 | 77 | 1022.2 |
| 20260506033311 | 66 | 188 | 4.3 | 6.1 | 0.00 | 0.00 | 0.00 | 76 | 1022.2 |
| 20260506032807 | 66 | 172 | 3.5 | 4.3 | 0.00 | 0.00 | 0.00 | 76 | 1022.4 |
| 20260506032306 | 66 | 182 | 3.5 | 5.2 | 0.00 | 0.00 | 0.00 | 75 | 1022.3 |
| 20260506031801 | 66 | 187 | 4.3 | 7.0 | 0.00 | 0.00 | 0.00 | 75 | 1022.4 |
| 20260506031258 | 67 | 185 | 4.3 | 7.8 | 0.00 | 0.00 | 0.00 | 74 | 1022.1 |
| 20260506030756 | 67 | 172 | 5.2 | 7.8 | 0.00 | 0.00 | 0.00 | 74 | 1022.0 |
| 20260506030254 | 67 | 178 | 4.3 | 7.0 | 0.00 | 0.00 | 0.00 | 74 | 1022.3 |
| 20260506025751 | 67 | 192 | 6.1 | 6.1 | 0.00 | 0.00 | 0.00 | 73 | 1022.2 |
| 20260506025247 | 67 | 177 | 4.3 | 7.0 | 0.00 | 0.00 | 0.00 | 73 | 1022.4 |
| 20260506024744 | 67 | 180 | 7.0 | 8.7 | 0.00 | 0.00 | 0.00 | 72 | 1022.4 |
| 20260506024240 | 68 | 171 | 4.3 | 7.8 | 0.00 | 0.00 | 0.00 | 72 | 1022.4 |
| 20260506023736 | 68 | 175 | 5.2 | 7.8 | 0.00 | 0.00 | 0.00 | 71 | 1022.1 |
| 20260506023234 | 68 | 184 | 7.0 | 9.6 | 0.00 | 0.00 | 0.00 | 71 | 1022.3 |
| 20260506022730 | 68 | 170 | 5.2 | 6.1 | 0.00 | 0.00 | 0.00 | 71 | 1022.2 |
| 20260506022228 | 68 | 146 | 6.1 | 7.8 | 0.00 | 0.00 | 0.00 | 70 | 1022.0 |
| 20260506021726 | 68 | 174 | 7.8 | 7.8 | 0.00 | 0.00 | 0.00 | 70 | 1021.9 |
| 20260506021223 | 68 | 190 | 5.2 | 8.7 | 0.00 | 0.00 | 0.00 | 69 | 1022.0 |
| 20260506020720 | 69 | 174 | 7.0 | 9.6 | 0.00 | 0.00 | 0.00 | 68 | 1021.7 |
| 20260506020218 | 69 | 146 | 7.0 | 11.3 | 0.00 | 0.00 | 0.00 | 68 | 1021.7 |
| 20260506015715 | 69 | 160 | 6.1 | 8.7 | 0.00 | 0.00 | 0.00 | 68 | 1021.9 |
| 20260506015213 | 69 | 171 | 6.1 | 7.8 | 0.00 | 0.00 | 0.00 | 67 | 1022.0 |
| 20260506014709 | 69 | 193 | 9.6 | 11.3 | 0.00 | 0.00 | 0.00 | 67 | 1021.8 |
| 20260506014205 | 70 | 170 | 7.0 | 11.3 | 0.00 | 0.00 | 0.00 | 66 | 1021.7 |
| 20260506013703 | 70 | 165 | 6.1 | 7.8 | 0.00 | 0.00 | 0.00 | 66 | 1021.7 |
| 20260506013200 | 70 | 172 | 6.1 | 7.8 | 0.00 | 0.00 | 0.00 | 66 | 1021.4 |
| 20260506012656 | 70 | 168 | 7.0 | 8.7 | 0.00 | 0.00 | 0.00 | 66 | 1021.6 |
| 20260506012153 | 70 | 176 | 7.0 | 9.6 | 0.00 | 0.00 | 0.00 | 65 | 1021.5 |
| 20260506011651 | 71 | 166 | 6.1 | 8.7 | 0.00 | 0.00 | 0.00 | 65 | 1021.2 |
| 20260506011146 | 71 | 151 | 6.1 | 8.7 | 0.00 | 0.00 | 0.00 | 65 | 1021.2 |
| 20260506010645 | 71 | 159 | 4.3 | 7.0 | 0.00 | 0.00 | 0.00 | 65 | 1021.1 |
| 20260506010142 | 71 | 170 | 6.1 | 8.7 | 0.00 | 0.00 | 0.00 | 64 | 1021.1 |
| 20260506005639 | 71 | 169 | 8.7 | 11.3 | 0.00 | 0.00 | 0.00 | 64 | 1021.2 |
| 20260506005136 | 72 | 167 | 7.8 | 12.2 | 0.00 | 0.00 | 0.00 | 64 | 1021.2 |
| 20260506004632 | 72 | 179 | 7.8 | 9.6 | 0.00 | 0.00 | 0.00 | 64 | 1021.0 |
| 20260506004130 | 72 | 126 | 7.8 | 14.8 | 0.00 | 0.00 | 0.00 | 63 | 1021.1 |
| 20260506003626 | 73 | 138 | 4.3 | 7.0 | 0.00 | 0.00 | 0.00 | 63 | 1021.0 |
| 20260506003122 | 73 | 169 | 9.6 | 12.2 | 0.00 | 0.00 | 0.00 | 63 | 1020.9 |
| 20260506002618 | 73 | 140 | 3.5 | 11.3 | 0.00 | 0.00 | 0.00 | 62 | 1020.7 |
| 20260506002114 | 73 | 183 | 7.0 | 9.6 | 0.00 | 0.00 | 0.00 | 62 | 1020.6 |
| 20260506001610 | 74 | 146 | 5.2 | 12.2 | 0.00 | 0.00 | 0.00 | 62 | 1020.6 |
| 20260506001107 | 74 | 162 | 11.3 | 13.9 | 0.00 | 0.00 | 0.00 | 61 | 1020.4 |
| 20260506000605 | 74 | 172 | 7.8 | 11.3 | 0.00 | 0.00 | 0.00 | 61 | 1020.4 |
| 20260505235600 | 75 | 146 | 7.0 | 12.2 | 0.00 | 0.00 | 0.00 | 60 | 1020.4 |
| 20260505235057 | 75 | 125 | 7.0 | 9.6 | 0.00 | 0.00 | 0.00 | 60 | 1020.5 |
| 20260505234554 | 76 | 162 | 6.1 | 9.6 | 0.00 | 0.00 | 0.00 | 60 | 1020.3 |
| 20260505234050 | 76 | 167 | 4.3 | 9.6 | 0.00 | 0.00 | 0.00 | 59 | 1020.3 |
| 20260505233548 | 77 | 176 | 4.3 | 6.1 | 0.00 | 0.00 | 0.00 | 58 | 1020.0 |
| 20260505233045 | 77 | 121 | 8.7 | 11.3 | 0.00 | 0.00 | 0.00 | 57 | 1020.2 |
| 20260505232543 | 78 | 138 | 8.7 | 13.0 | 0.00 | 0.00 | 0.00 | 56 | 1020.2 |
| 20260505232040 | 78 | 156 | 7.0 | 8.7 | 0.00 | 0.00 | 0.00 | 55 | 1020.3 |
| 20260505231537 | 78 | 173 | 7.0 | 12.2 | 0.00 | 0.00 | 0.00 | 54 | 1020.4 |
| 20260505231036 | 78 | 166 | 6.1 | 8.7 | 0.00 | 0.00 | 0.00 | 53 | 1020.3 |
| 20260505230533 | 79 | 151 | 7.0 | 8.7 | 0.00 | 0.00 | 0.00 | 52 | 1020.2 |
| 20260505230029 | 79 | 173 | 11.3 | 13.0 | 0.00 | 0.00 | 0.00 | 51 | 1020.1 |
| 20260505225526 | 79 | 173 | 6.1 | 7.8 | 0.00 | 0.00 | 0.00 | 49 | 1020.4 |
| 20260505225022 | 80 | 176 | 5.2 | 9.6 | 0.00 | 0.00 | 0.00 | 49 | 1020.4 |
| 20260505224519 | 81 | 184 | 7.0 | 8.7 | 0.00 | 0.00 | 0.00 | 47 | 1020.0 |
| 20260505224016 | 82 | 176 | 5.2 | 6.1 | 0.00 | 0.00 | 0.00 | 38 | 1020.4 |
| 20260505223513 | 82 | 197 | 3.5 | 5.2 | 0.00 | 0.00 | 0.00 | 36 | 1020.3 |
| 20260505223010 | 82 | 167 | 3.5 | 9.6 | 0.00 | 0.00 | 0.00 | 37 | 1020.2 |
| 20260505222506 | 82 | 196 | 7.0 | 8.7 | 0.00 | 0.00 | 0.00 | 37 | 1020.3 |
| 20260505222001 | 82 | 184 | 5.2 | 6.1 | 0.00 | 0.00 | 0.00 | 37 | 1020.3 |
| 20260505221459 | 82 | 209 | 2.6 | 5.2 | 0.00 | 0.00 | 0.00 | 37 | 1020.1 |
| 20260505220956 | 82 | 177 | 4.3 | 7.8 | 0.00 | 0.00 | 0.00 | 36 | 1020.1 |
| 20260505220453 | 82 | 121 | 3.5 | 7.8 | 0.00 | 0.00 | 0.00 | 37 | 1020.0 |
| 20260505215951 | 82 | 155 | 7.8 | 12.2 | 0.00 | 0.00 | 0.00 | 37 | 1020.0 |
| 20260505215449 | 83 | 175 | 7.0 | 7.8 | 0.00 | 0.00 | 0.00 | 36 | 1020.2 |
| 20260505214946 | 83 | 193 | 7.8 | 11.3 | 0.00 | 0.00 | 0.00 | 35 | 1020.1 |
| 20260505214444 | 83 | 224 | 3.5 | 7.0 | 0.00 | 0.00 | 0.00 | 35 | 1020.4 |
| 20260505213941 | 83 | 201 | 4.3 | 5.2 | 0.00 | 0.00 | 0.00 | 36 | 1020.3 |
| 20260505213439 | 83 | 193 | 4.3 | 7.0 | 0.00 | 0.00 | 0.00 | 36 | 1020.2 |
| 20260505212935 | 83 | 180 | 2.6 | 6.1 | 0.00 | 0.00 | 0.00 | 37 | 1020.3 |
| 20260505212432 | 83 | 198 | 6.1 | 7.8 | 0.00 | 0.00 | 0.00 | 37 | 1020.3 |
| 20260505211928 | 82 | 228 | 7.8 | 7.8 | 0.00 | 0.00 | 0.00 | 37 | 1020.5 |
| 20260505211426 | 83 | 248 | 3.5 | 4.3 | 0.00 | 0.00 | 0.00 | 36 | 1020.3 |
| 20260505210922 | 84 | 226 | 5.2 | 6.1 | 0.00 | 0.00 | 0.00 | 36 | 1020.4 |
| 20260505210419 | 84 | 261 | 4.3 | 6.1 | 0.00 | 0.00 | 0.00 | 36 | 1020.4 |
| 20260505205916 | 83 | 170 | 6.1 | 8.7 | 0.00 | 0.00 | 0.00 | 37 | 1020.4 |
| 20260505205414 | 83 | 159 | 6.1 | 8.7 | 0.00 | 0.00 | 0.00 | 36 | 1020.2 |
| 20260505204911 | 83 | 160 | 8.7 | 9.6 | 0.00 | 0.00 | 0.00 | 36 | 1020.4 |
| 20260505204408 | 82 | 190 | 4.3 | 11.3 | 0.00 | 0.00 | 0.00 | 37 | 1020.5 |
| 20260505203906 | 82 | 142 | 7.0 | 8.7 | 0.00 | 0.00 | 0.00 | 36 | 1020.7 |
| 20260505203402 | 82 | 156 | 4.3 | 7.8 | 0.00 | 0.00 | 0.00 | 37 | 1020.4 |
| 20260505202858 | 82 | 178 | 6.1 | 7.8 | 0.00 | 0.00 | 0.00 | 37 | 1020.4 |
| 20260505202355 | 83 | 168 | 6.1 | 8.7 | 0.00 | 0.00 | 0.00 | 36 | 1020.6 |
| 20260505201851 | 82 | 112 | 6.1 | 9.6 | 0.00 | 0.00 | 0.00 | 36 | 1020.7 |
| 20260505201349 | 83 | 166 | 7.8 | 12.2 | 0.00 | 0.00 | 0.00 | 36 | 1021.0 |
| 20260505200847 | 83 | 146 | 3.5 | 5.2 | 0.00 | 0.00 | 0.00 | 35 | 1020.8 |
| 20260505200344 | 84 | 197 | 6.1 | 7.8 | 0.00 | 0.00 | 0.00 | 35 | 1021.0 |
| 20260505195839 | 84 | 282 | 3.5 | 5.2 | 0.00 | 0.00 | 0.00 | 36 | 1021.1 |
| 20260505195336 | 82 | 114 | 0.9 | 1.7 | 0.00 | 0.00 | 0.00 | 35 | 1020.9 |
| 20260505194833 | 82 | 254 | 2.6 | 4.3 | 0.00 | 0.00 | 0.00 | 37 | 1021.4 |
| 20260505194331 | 83 | 232 | 7.8 | 12.2 | 0.00 | 0.00 | 0.00 | 35 | 1021.4 |
| 20260505193826 | 82 | 193 | 7.0 | 7.8 | 0.00 | 0.00 | 0.00 | 36 | 1021.4 |
| 20260505193324 | 82 | 181 | 5.2 | 7.0 | 0.00 | 0.00 | 0.00 | 37 | 1021.6 |
| 20260505192821 | 82 | 225 | 3.5 | 7.0 | 0.00 | 0.00 | 0.00 | 37 | 1021.7 |
| 20260505192320 | 81 | 149 | 4.3 | 7.0 | 0.00 | 0.00 | 0.00 | 38 | 1021.8 |
| 20260505191817 | 82 | 169 | 6.1 | 8.7 | 0.00 | 0.00 | 0.00 | 37 | 1021.6 |
| 20260505191315 | 82 | 174 | 6.1 | 9.6 | 0.00 | 0.00 | 0.00 | 37 | 1022.0 |
| 20260505190812 | 80 | 164 | 2.6 | 4.3 | 0.00 | 0.00 | 0.00 | 39 | 1021.9 |